This is the latest recevied weather packets stored in our database for station/object KD7JB. If no packets are shown the sender has not sent any weather packets the latest 10 day(s).
| Time | Temp. | Humidity | Pressure | Rain* | Wind** | Luminosity | Snow |
|---|---|---|---|---|---|---|---|
| 1777908113 | 17.78° C | 37% | 1173 hPa | 0 mm | - | 305 W/m² | - |
| 1777907809 | 17.78° C | 38% | 1173 hPa | 0 mm | - | 290 W/m² | - |
| 1777907504 | 17.22° C | 38% | 1173.1 hPa | 0 mm | - | 278 W/m² | - |
| 1777907201 | 17.22° C | 38% | 1173 hPa | 0 mm | - | 261 W/m² | - |
| 1777906898 | 17.22° C | 38% | 1173.1 hPa | 0 mm | - | 261 W/m² | - |
| 1777906596 | 17.22° C | 38% | 1173 hPa | 0 mm | - | 208 W/m² | - |
| 1777906291 | 17.22° C | 39% | 1172.9 hPa | 0 mm | - | 200 W/m² | - |
| 1777905988 | 16.67° C | 38% | 1172.9 hPa | 0 mm | - | 185 W/m² | - |
| 1777905685 | 17.22° C | 38% | 1172.7 hPa | 0 mm | - | 151 W/m² | - |
| 1777905381 | 17.22° C | 38% | 1173 hPa | 0 mm | - | 158 W/m² | - |
| 1777905079 | 17.22° C | 39% | 1173 hPa | 0 mm | - | 152 W/m² | - |
| 1777904776 | 17.22° C | 40% | 1172.9 hPa | 0 mm | - | 148 W/m² | - |
| 1777904473 | 17.22° C | 39% | 1172.9 hPa | 0 mm | - | 146 W/m² | - |
| 1777904170 | 16.67° C | 39% | 1172.8 hPa | 0 mm | - | 133 W/m² | - |
| 1777903867 | 16.67° C | 40% | 1172.9 hPa | 0 mm | - | 121 W/m² | - |
| 1777903563 | 16.11° C | 40% | 1172.7 hPa | 0 mm | - | 109 W/m² | - |
| 1777903259 | 16.11° C | 40% | 1172.6 hPa | 0 mm | - | 103 W/m² | - |
| 1777902956 | 16.11° C | 41% | 1172.8 hPa | 0 mm | - | 91 W/m² | - |
| 1777902653 | 15.56° C | 41% | 1172.9 hPa | 0 mm | - | 61 W/m² | - |
| 1777902350 | 15.56° C | 41% | 1172.7 hPa | 0 mm | - | 51 W/m² | - |
| 1777902047 | 15.56° C | 41% | 1172.7 hPa | 0 mm | - | 50 W/m² | - |
| 1777901745 | 15.56° C | 41% | 1172.6 hPa | 0 mm | - | 50 W/m² | - |
| 1777901442 | 15.56° C | 41% | 1172.8 hPa | 0 mm | - | 44 W/m² | - |
| 1777901140 | 15.56° C | 40% | 1172.8 hPa | 0 mm | - | 38 W/m² | - |
| 1777900838 | 15° C | 41% | 1172.6 hPa | 0 mm | - | 33 W/m² | - |
* Rain latest hour (hover to see other rain measurements)
** Current wind speed in m/s (hover to see current wind gust speed)